Location: Unspecified
(44.8237°N, 0.6475°W)
Time: 21:34:03
(UTC+01:00)

ISS - Pass Details

Date: 02 October 2022
Orbit: 415 x 420 km, 51.6° (Epoch: 30 November)

Event Time Altitude Azimuth Distance (km) Brightness Sun altitude
Rises 21:01:41 0° 298° (WNW) 2,372 1.5 -15.0°
Reaches altitude 10° 21:03:48 10° 295° (WNW) 1,504 0.3 -15.4°
Maximum altitude 21:07:08 60° 215° (SW) 486 -3.4 -16.0°
Enters shadow 21:08:32 31° 147° (SSE) 769 -2.8 -16.2°
